Flag for Canada Weather past 2 weeks in Riverview, New Brunswick, Canada

Now
48 °F

Overcast.


Feels Like: 45 °F
Forecast: 48 / 57 °F
Wind: 8 mph from Southeast

Location: Moncton

Current Time: May 22, 2015 at 9:25:39 AM

Latest Report: May 22, 2015 at 8:00 AM


Visibility: 15 mi

Pressure: 29.88 "Hg

Humidity: 66%

Dew point: 37 °F

Location of RiverviewLocation

Historic Weather in Riverview — Graph

°F

Riverview temperature yesterday

Maximum temperature yesterday: 70 °F (at 6:00 PM)
Minimum temperature yesterday: 41 °F (at 2:00 AM)
Average temperature yesterday: 56 °F

Past Weeks' High & Low Weather Summary

 TemperatureHumidityPressure
High75 °F (May 16, 3:00 PM)100% (May 10, 9:00 AM)30.42 "Hg (May 10, 9:00 AM)
Low30 °F (May 8, 12:00 AM)14% (May 7, 2:00 PM)29.41 "Hg (May 20, 5:00 PM)
Average51 °F65%30.02 "Hg
* Reported May 7 8:00 AM — May 22 8:00 AM, Riverview, Weather by CustomWeather, © 2015

Note: Actual official high and low records may vary slightly from our data, if they occured in-between our weather recording intervals... More about our weather records

Advertising

Riverview weather history for previous 24 hours

 ConditionsComfort  
Time TempWeatherWind HumidityBarometerVisibility
8:00 AM
Fri, May 22
48 °FOvercast.8 mph66%29.88 "Hg15 mi
7:00 AM46 °FOvercast.7 mph71%29.88 "Hg15 mi
6:00 AM45 °FMostly cloudy.9 mph76%29.85 "Hg15 mi
5:00 AM45 °FPassing clouds.8 mph76%29.84 "Hg15 mi
4:00 AM46 °FPassing clouds.7 mph71%29.85 "Hg15 mi
3:00 AM45 °FPassing clouds.7 mph81%29.86 "Hg15 mi
2:00 AM45 °FPassing clouds.6 mph81%29.86 "Hg15 mi
1:00 AM45 °FPassing clouds.6 mph76%29.87 "Hg15 mi
12:00 AM48 °FPassing clouds.5 mph66%29.86 "Hg15 mi
11:00 PM
Thu, May 21
54 °FPassing clouds.8 mph51%29.84 "Hg15 mi
10:00 PM57 °FPassing clouds.10 mph44%29.83 "Hg15 mi
9:00 PM59 °FPartly sunny.7 mph42%29.80 "Hg15 mi
8:00 PM64 °FScattered clouds.9 mph30%29.77 "Hg15 mi
7:00 PM68 °FScattered clouds.16 mph24%29.75 "Hg15 mi
6:00 PM70 °FPassing clouds.17 mph23%29.73 "Hg15 mi
5:00 PM68 °FScattered clouds.13 mph26%29.72 "Hg15 mi
4:00 PM68 °FScattered clouds.23 mph24%29.71 "Hg15 mi
3:00 PM66 °FBroken clouds.24 mph30%29.71 "Hg15 mi
2:00 PM64 °FMore clouds than sun.17 mph34%29.72 "Hg15 mi
1:00 PM64 °FBroken clouds.22 mph34%29.71 "Hg15 mi
12:00 PM63 °FScattered clouds.25 mph37%29.71 "Hg15 mi
11:00 AM61 °FPassing clouds.21 mph39%29.70 "Hg15 mi
10:00 AM57 °FPassing clouds.13 mph44%29.71 "Hg15 mi
9:00 AM54 °FPassing clouds.16 mph47%29.71 "Hg15 mi
Weather by CustomWeather, © 2015

See weather overviewHow to use our weather pages